Tracking 19170 objects as of 23-May-2018
HD Live streaming from Space Station
objects crossing your sky now

COSMOS 1763

Track COSMOS 1763 now!
10-day predictions
COSMOS 1763 is classified as:


NORAD ID: 16860
Int'l Code: 1986-052A
Perigee: 748.8 km
Apogee: 794.8 km
Inclination: 74.0 °
Period: 100.1 minutes
Semi major axis: 7142 km
RCS: 2.3788 m2 (large)
Launch date: July 16, 1986
Source: Commonwealth of Independent States (former USSR) (CIS)
Launch site: PLESETSK MISSILE AND SPACE COMPLEX (PKMTR)
aabbcc
Your satellite tracking list
Your tracking list is empty




NASA's NSSDC Master Catalog

Two Line Element Set (TLE):
1 16860U 86052A   18142.71389668 +.00000007 +00000-0 +11172-4 0  9999
2 16860 074.0342 240.2757 0032227 248.0869 111.6858 14.38145769670004
Source of the keplerian elements: AFSPC